Location: Unspecified
(0.0000°N, 0.0000°E)
Time: 19:48:02
(UTC+00:00)

Tiros 1 - All Passes

Search period start: 25 April 2015 00:00
Search period end: 05 May 2015 00:00
Orbit: 632 x 666 km, 48.4° (Epoch: 25 April)

Date Brightness Start Highest point End Pass type
(mag) Time Alt. Az. Time Alt. Az. Time Alt. Az.
25 Apr - 09:51:24 10° NW 09:55:59 62° SW 10:00:38 10° SSE daylight
25 Apr - 20:23:57 10° S 20:27:18 19° SE 20:30:45 10° E night (unlit)
25 Apr - 22:05:10 10° WSW 22:09:29 33° NW 22:13:43 10° NNE night (unlit)
26 Apr - 08:36:22 10° NNW 08:40:30 33° NE 08:44:45 10° ESE daylight
26 Apr - 10:19:20 10° W 10:22:41 19° SW 10:25:54 10° S daylight
26 Apr - 20:49:15 10° SSW 20:53:59 63° SE 20:58:40 10° NE night (unlit)
26 Apr - 22:35:29 10° WNW 22:36:16 10° NW 22:36:44 10° NW night (unlit)
27 Apr - 09:02:28 10° NW 09:07:05 69° SW 09:11:45 10° SSE daylight
27 Apr - 19:35:15 10° S 19:38:22 18° SE 19:41:38 10° E visible
27 Apr - 21:16:09 10° WSW 21:20:35 37° NW 21:24:55 10° NNE night (unlit)
28 Apr - 07:47:35 10° N 07:51:36 30° NE 07:55:43 10° ESE daylight
28 Apr - 09:30:14 10° W 09:33:46 20° SW 09:37:11 10° S daylight
28 Apr - 20:00:22 10° SSW 20:05:05 57° SE 20:09:45 10° NE visible
28 Apr - 21:45:36 10° WNW 21:47:20 11° NW 21:48:46 10° NNW night (unlit)
29 Apr - 08:13:34 10° NW 08:18:12 77° SW 08:22:52 10° SE daylight
29 Apr - 18:46:34 10° SSE 18:49:25 16° SE 18:52:28 10° E visible
29 Apr - 20:27:07 10° WSW 20:31:39 41° NW 20:36:06 10° NNE visible
30 Apr - 06:58:49 10° N 07:02:41 27° NE 07:06:41 10° ESE daylight
30 Apr - 08:41:10 10° WNW 08:44:50 22° SW 08:48:26 10° S daylight
30 Apr - 19:11:29 10° SSW 19:16:09 51° SE 19:20:47 10° NE visible
30 Apr - 20:56:08 10° WNW 20:58:24 13° NW 21:00:22 10° NNW visible
01 May - 07:24:39 10° NW 07:29:17 85° SW 07:33:58 10° SE daylight
01 May - 17:57:56 10° SSE 18:00:28 15° SE 18:03:14 10° E daylight
01 May - 19:38:07 10° SW 19:42:43 45° NW 19:47:16 10° NNE visible
02 May - 06:10:03 10° N 06:13:46 25° NE 06:17:37 10° ESE daylight
02 May - 07:52:05 10° WNW 07:55:55 24° SW 07:59:40 10° S daylight
02 May - 18:22:36 10° SSW 18:27:13 46° SE 18:31:49 10° NE visible
02 May - 20:06:47 10° W 20:09:26 14° NW 20:11:51 10° NNW visible
03 May - 06:35:45 10° NW 06:40:22 86° NE 06:45:02 10° SE daylight
03 May - 17:09:19 10° SSE 17:11:31 13° SE 17:13:57 10° ESE daylight
03 May - 18:49:07 10° SW 18:53:47 50° NW 18:58:25 10° NNE visible
04 May - 05:21:17 10° N 05:24:50 22° NE 05:28:31 10° ESE visible
04 May - 07:03:02 10° WNW 07:06:59 27° SW 07:10:53 10° S daylight
04 May - 17:33:44 10° SSW 17:38:16 42° SE 17:42:49 10° ENE daylight
04 May - 19:17:31 10° W 19:20:29 16° NW 19:23:15 10° NNW visible
